User: anonymous   Login
Location: Delta State University
(33.7460°N, 90.7320°W)
Time: 16:45:59
(UTC-06:00)
Language:

Iridium 13 - Orbit

View from above orbital plane
View from above orbital plane
View from above satellite
View from above satellite

Ground track
Ground track

The orbit data is extracted from the following two-line orbital elements,

1 24840U 97030E   17058.42440743 -.00000014  00000-0 -12093-4 0  9992
2 24840  86.3954  36.0870 0002087  89.5896 270.5539 14.34213800 31215
Epoch (UTC): 27 February 2017 10:11:08
Eccentricity: 0.0002087
inclination: 86.3954°
perigee height: 776 km
apogee height: 779 km
right ascension of ascending node: 36.0870°
argument of perigee: 89.5896°
revolutions per day: 14.34213800
mean anomaly at epoch: 270.5539°
orbit number at epoch: 3121

The dashed part of the orbit path shows where the satellite is in the earth's shadow,  

DLR